Montpelier, VT

9:03 AM EST on December 07, 2019 (GMT -0500)
Knapp State

Weather History for KMPV - July, 2019

Change the Weather History Date:

Friday, July 19, 2019

  Actual Average Record
Temperature  
Mean Temperature 74 °F 67 °F  
Max Temperature 86 °F 79 °F 92 °F (1991)
Min Temperature 64 °F 56 °F 43 °F (2018)
Degree Days  
Heating Degree Days 0 1  
Month to date heating degree days 25  
Since 1 June heating degree days 146  
Since 1 July heating degree days 25  
Cooling Degree Days 9 3  
Month to date cooling degree days 61  
Year to date cooling degree days 124  
Since 1 June cooling degree days 114  
Growing Degree Days 24 (Base 50)    
Moisture  
Dew Point 66 °F    
Average Humidity 76    
Maximum Humidity 93    
Minimum Humidity 59    
Precipitation  
Precipitation 0.00 in 0.13 in 1.30 in (1951)
Month to date precipitation 2.36  
Year to date precipitation 19.07  
Sea Level Pressure  
Sea Level Pressure 29.86 in    
Wind  
Wind Speed 6 mph (SSW)    
Max Wind Speed 13 mph    
Max Gust Speed -    
Visibility 10 miles    
Events      
T = Trace of Precipitation, MM = Missing Value Source: NWS Daily Summary

Daily Weather History Graph

Daily Weather History Graph

Search for Another Location

Airport or City:

Astronomy

Jul. 19, 2019 Rise Set
Actual Time 5:24 AM EDT 8:28 PM EDT
Civil Twilight 4:49 AM EDT 9:03 PM EDT
Nautical Twilight 4:04 AM EDT 9:47 PM EDT
Astronomical Twilight 3:11 AM EDT 10:40 PM EDT
Moon 10:20 PM EDT (7/19) 7:51 AM EDT (7/19)
Length of Visible Light 16h 13m
Length of Day
15h 04m
Waning Gibbous, 93% of the Moon is Illuminated
Jul 19
Waning Gibbous
Jul 24
Last Quarter
Jul 31
New
Aug 7
First Quarter
Aug 15
Full

Hourly Weather History & Observations

Time (EDT) Temp. Heat Index Dew Point Humidity Pressure Visibility Wind Dir Wind Speed Gust Speed Precip Events Conditions
12:51 AM 66.9 °F - 63.0 °F 87% 29.93 in 10.0 mi Variable 3.5 mph - N/A   Clear
1:51 AM 66.0 °F - 62.1 °F 87% 29.93 in 10.0 mi SSW 6.9 mph - N/A   Clear
2:51 AM 64.9 °F - 61.0 °F 87% 29.92 in 10.0 mi SE 6.9 mph - N/A   Clear
3:51 AM 64.9 °F - 61.0 °F 87% 29.92 in 10.0 mi Calm Calm - N/A   Mostly Cloudy
4:19 AM 64.9 °F - 61.0 °F 87% 29.93 in 10.0 mi South 5.8 mph - N/A   Overcast
4:51 AM 66.0 °F - 62.1 °F 87% 29.91 in 10.0 mi South 10.4 mph - N/A   Overcast
5:35 AM 64.0 °F - 62.1 °F 93% 29.91 in 10.0 mi South 8.1 mph - N/A   Scattered Clouds
5:51 AM 64.0 °F - 62.1 °F 93% 29.90 in 10.0 mi South 6.9 mph - N/A   Clear
6:51 AM 68.0 °F - 64.0 °F 87% 29.90 in 10.0 mi South 9.2 mph - N/A   Partly Cloudy
7:03 AM 68.0 °F - 64.0 °F 87% 29.91 in 10.0 mi SSE 9.2 mph - N/A   Mostly Cloudy
7:21 AM 69.1 °F - 64.0 °F 84% 29.90 in 10.0 mi SSE 6.9 mph - N/A   Scattered Clouds
7:51 AM 71.1 °F - 64.9 °F 81% 29.88 in 10.0 mi SSE 6.9 mph - N/A   Clear
8:51 AM 73.9 °F - 66.0 °F 76% 29.87 in 10.0 mi SSE 11.5 mph - N/A   Partly Cloudy
9:51 AM 77.0 °F - 68.0 °F 74% 29.86 in 10.0 mi SSE 11.5 mph - N/A   Clear
10:51 AM 80.1 °F 83.2 °F 70.0 °F 71% 29.84 in 10.0 mi SSE 12.7 mph - N/A   Partly Cloudy
11:51 AM 82.0 °F 85.9 °F 70.0 °F 67% 29.83 in 10.0 mi SSW 5.8 mph - N/A   Mostly Cloudy
12:51 PM 84.0 °F 87.8 °F 69.1 °F 61% 29.82 in 10.0 mi SW 9.2 mph - N/A   Scattered Clouds
1:51 PM 84.9 °F 88.8 °F 69.1 °F 59% 29.80 in 10.0 mi SW 11.5 mph - N/A   Mostly Cloudy
2:51 PM 84.0 °F 88.4 °F 70.0 °F 63% 29.81 in 10.0 mi West 8.1 mph - N/A   Scattered Clouds
3:51 PM 84.0 °F 89.0 °F 71.1 °F 65% 29.80 in 10.0 mi WSW 6.9 mph - N/A   Clear
4:51 PM 84.0 °F 88.4 °F 70.0 °F 63% 29.81 in 10.0 mi West 6.9 mph - N/A   Scattered Clouds
5:51 PM 84.9 °F 90.1 °F 71.1 °F 63% 29.80 in 10.0 mi WSW 4.6 mph - N/A   Scattered Clouds
6:51 PM 82.9 °F 87.0 °F 70.0 °F 65% 29.80 in 10.0 mi Variable 4.6 mph - N/A   Partly Cloudy
7:51 PM 82.0 °F 85.5 °F 69.1 °F 65% 29.79 in 10.0 mi SW 3.5 mph - N/A   Clear
8:51 PM 81.0 °F 83.8 °F 68.0 °F 65% 29.81 in 10.0 mi WSW 5.8 mph - N/A   Clear
9:51 PM 80.1 °F 82.7 °F 68.0 °F 67% 29.81 in 10.0 mi WSW 4.6 mph - N/A   Clear
10:51 PM 77.0 °F - 68.0 °F 74% 29.81 in 10.0 mi Calm Calm - N/A   Clear
11:51 PM 75.9 °F - 69.1 °F 79% 29.81 in 10.0 mi SW 3.5 mph - N/A   Clear